{"data":{"norad_id":54361,"epoch":"2026-09-21T23:19:01.689312Z","epoch_age_seconds":35159,"freshness":"FRESH","line1":"1 54361U 22158A   26264.97154733  .00000111  00000+0  42558-4 0  9996","line2":"2 54361  98.3553   1.8836 0002209  78.7342 281.4099 14.46980809201830","mean_motion":14.46980809,"eccentricity":0.0002209,"inclination_deg":98.3553,"raan_deg":1.8836,"arg_perigee_deg":78.7342,"mean_anomaly_deg":281.4099,"bstar":4.2558e-5,"rev_number":20183,"period_min":99.517560360401,"perigee_km":733.95524615805,"apogee_km":737.09806276059,"semimajor_km":7113.6636544593,"source":"CELESTRAK","updated_at":"2026-09-22T09:00:25.144564Z"}}